QPF
0.05 0.04 0.05 0.04 0.04 0.04 0.04 0.03 0.03 0.02 0.02 0.02 0.01 0.00 0.01 0.00 0.00 0.00 0.02 0.08 0.12 0.12 0.09 0.05 0.03 0.03 0.02 0.02 0.02 0.03 0.04 0.06 0.07 0.08 0.08 0.09 0.10 0.09
0.03 0.03 0.03 0.03 0.04 0.03 0.04 0.03 0.03 0.03 0.02 0.01 0.01 0.00 0.01 0.00 0.00 0.00 0.01 0.02 0.04 0.07 0.06 0.03 0.03 0.02 0.02 0.02 0.02 0.02 0.04 0.04 0.05 0.06 0.06 0.08 0.09 0.11
0.02 0.02 0.02 0.01 0.02 0.02 0.02 0.03 0.03 0.03 0.02 0.00 0.00 0.01 0.02 0.02 0.01 0.01 0.00 0.01 0.01 0.02 0.03 0.03 0.02 0.02 0.02 0.02 0.01 0.01 0.01 0.02 0.03 0.04 0.05 0.05 0.05 0.08
0.01 0.01 0.01 0.01 0.02 0.02 0.02 0.02 0.03 0.03 0.02 0.01 0.01 0.01 0.02 0.02 0.02 0.02 0.01 0.00 0.00 0.01 0.01 0.01 0.01 0.01 0.01 0.01 0.01 0.01 0.01 0.01 0.01 0.01 0.02 0.03 0.02 0.03
0.02 0.02 0.02 0.02 0.02 0.03 0.02 0.02 0.02 0.03 0.03 0.02 0.02 0.02 0.02 0.02 0.02 0.01 0.01 0.01 0.00 0.00 0.00 0.00 0.00 0.00 0.00 0.00 0.00 0.00 0.00 0.00 0.00 0.01 0.01 0.01 0.01 0.01
0.02 0.02 0.02 0.02 0.03 0.04 0.03 0.03 0.03 0.03 0.03 0.02 0.01 0.02 0.02 0.02 0.02 0.02 0.02 0.02 0.01 0.01 0.01 0.01 0.01 0.01 0.00 0.00 0.00 0.00 0.00 0.01 0.01 0.01 0.01 0.01 0.01 0.02
0.01 0.01 0.01 0.02 0.02 0.03 0.03 0.04 0.04 0.03 0.03 0.03 0.02 0.02 0.03 0.02 0.02 0.02 0.02 0.03 0.04 0.02 0.02 0.02 0.02 0.02 0.01 0.00 0.01 0.01 0.01 0.01 0.01 0.02 0.02 0.02 0.01 0.02
0.01 0.02 0.01 0.01 0.02 0.03 0.03 0.03 0.03 0.03 0.03 0.03 0.03 0.04 0.04 0.03 0.03 0.02 0.02 0.03 0.03 0.03 0.03 0.02 0.02 0.02 0.02 0.01 0.01 0.01 0.01 0.01 0.02 0.02 0.02 0.02 0.02 0.02
0.02 0.02 0.01 0.02 0.02 0.03 0.02 0.03 0.03 0.03 0.03 0.03 0.04 0.04 0.04 0.04 0.04 0.03 0.03 0.03 0.03 0.03 0.03 0.03 0.04 0.03 0.02 0.02 0.02 0.02 0.02 0.02 0.03 0.02 0.02 0.02 0.02 0.03
0.02 0.02 0.02 0.02 0.02 0.02 0.02 0.02 0.02 0.02 0.03 0.03 0.03 0.04 0.04 0.04 0.05 0.04 0.04 0.03 0.02 0.02 0.02 0.02 0.02 0.02 0.03 0.02 0.02 0.02 0.02 0.02 0.02 0.03 0.02 0.02 0.02 0.02
0.02 0.02 0.01 0.01 0.01 0.01 0.01 0.01 0.02 0.01 0.01 0.02 0.02 0.02 0.02 0.02 0.03 0.04 0.04 0.04 0.02 0.02 0.02 0.01 0.01 0.02 0.02 0.02 0.02 0.02 0.02 0.02 0.02 0.02 0.02 0.02 0.02 0.02
0.02 0.02 0.02 0.02 0.02 0.01 0.01 0.01 0.01 0.01 0.01 0.01 0.01 0.01 0.01 0.01 0.02 0.03 0.03 0.03 0.03 0.02 0.02 0.02 0.01 0.03 0.02 0.01 0.02 0.02 0.03 0.03 0.03 0.03 0.03 0.02 0.02 0.03
0.01 0.01 0.02 0.03 0.02 0.02 0.01 0.01 0.01 0.01 0.02 0.01 0.01 0.01 0.01 0.01 0.01 0.03 0.03 0.02 0.02 0.02 0.02 0.03 0.03 0.03 0.04 0.03 0.02 0.02 0.03 0.03 0.03 0.03 0.04 0.05 0.05 0.06
0.01 0.01 0.01 0.02 0.03 0.03 0.02 0.01 0.01 0.01 0.01 0.01 0.01 0.01 0.01 0.01 0.01 0.02 0.02 0.02 0.02 0.02 0.03 0.04 0.03 0.04 0.05 0.04 0.04 0.04 0.04 0.03 0.03 0.03 0.05 0.08 0.10 0.10
0.01 0.01 0.01 0.01 0.01 0.01 0.02 0.02 0.02 0.01 0.01 0.01 0.00 0.00 0.00 0.01 0.01 0.01 0.02 0.02 0.03 0.03 0.03 0.04 0.04 0.04 0.04 0.04 0.04 0.05 0.05 0.05 0.05 0.05 0.06 0.07 0.09 0.09
0.01 0.01 0.01 0.02 0.01 0.01 0.01 0.02 0.02 0.02 0.01 0.01 0.01 0.01 0.01 0.01 0.01 0.01 0.02 0.03 0.03 0.03 0.02 0.03 0.03 0.04 0.04 0.03 0.04 0.05 0.07 0.06 0.05 0.05 0.06 0.06 0.06 0.06
0.02 0.02 0.02 0.02 0.02 0.02 0.02 0.02 0.02 0.02 0.02 0.02 0.02 0.01 0.01 0.01 0.01 0.01 0.02 0.02 0.02 0.02 0.02 0.03 0.03 0.04 0.04 0.04 0.04 0.04 0.05 0.06 0.06 0.07 0.07 0.07 0.06 0.05
0.03 0.03 0.03 0.03 0.03 0.03 0.03 0.03 0.03 0.03 0.02 0.02 0.02 0.02 0.02 0.02 0.02 0.02 0.02 0.02 0.02 0.02 0.02 0.03 0.03 0.04 0.04 0.04 0.03 0.03 0.03 0.04 0.05 0.06 0.06 0.06 0.06 0.06
0.04 0.04 0.04 0.04 0.03 0.03 0.03 0.03 0.03 0.03 0.03 0.03 0.02 0.02 0.02 0.02 0.02 0.02 0.02 0.02 0.03 0.02 0.02 0.03 0.03 0.04 0.04 0.03 0.03 0.02 0.03 0.04 0.05 0.06 0.06 0.06 0.05 0.05
0.04 0.04 0.05 0.05 0.05 0.04 0.04 0.04 0.04 0.05 0.04 0.04 0.04 0.03 0.03 0.04 0.04 0.03 0.03 0.03 0.03 0.03 0.03 0.04 0.04 0.05 0.05 0.05 0.04 0.03 0.03 0.04 0.05 0.05 0.05 0.05 0.05 0.05
0.04 0.04 0.04 0.04 0.05 0.05 0.04 0.04 0.04 0.04 0.03 0.03 0.04 0.04 0.05 0.05 0.05 0.05 0.05 0.05 0.04 0.05 0.04 0.05 0.05 0.05 0.05 0.04 0.04 0.03 0.03 0.04 0.05 0.06 0.06 0.06 0.06 0.06
0.03 0.02 0.02 0.02 0.02 0.02 0.02 0.03 0.03 0.03 0.03 0.04 0.04 0.05 0.06 0.05 0.05 0.06 0.06 0.06 0.05 0.05 0.05 0.05 0.05 0.05 0.05 0.05 0.05 0.05 0.07 0.07 0.07 0.06 0.07 0.07 0.06 0.06
0.01 0.01 0.01 0.01 0.01 0.02 0.02 0.02 0.02 0.02 0.03 0.04 0.04 0.05 0.05 0.05 0.04 0.04 0.05 0.06 0.07 0.07 0.06 0.06 0.06 0.07 0.07 0.07 0.07 0.08 0.08 0.08 0.08 0.07 0.05 0.05 0.05 0.05
MSLP
1015.77 1015.84 1015.96 1016.10 1016.22 1016.28 1016.25 1016.14 1015.93 1015.67 1015.38 1015.13 1014.96 1014.89 1014.95 1015.13 1015.40 1015.73 1016.08 1016.42 1016.72 1016.98 1017.19 1017.38 1017.56 1017.74 1017.95 1018.18 1018.40 1018.62 1018.80 1018.92 1018.97 1018.95 1018.86 1018.72 1018.56 1018.40
1015.46 1015.51 1015.60 1015.71 1015.81 1015.86 1015.85 1015.74 1015.56 1015.32 1015.07 1014.85 1014.69 1014.63 1014.69 1014.85 1015.11 1015.43 1015.78 1016.12 1016.44 1016.73 1016.98 1017.22 1017.44 1017.68 1017.92 1018.17 1018.41 1018.63 1018.80 1018.91 1018.94 1018.91 1018.82 1018.70 1018.55 1018.42
1015.05 1015.06 1015.11 1015.18 1015.24 1015.27 1015.24 1015.15 1015.00 1014.80 1014.60 1014.42 1014.31 1014.28 1014.36 1014.54 1014.80 1015.11 1015.46 1015.81 1016.15 1016.46 1016.75 1017.02 1017.28 1017.55 1017.82 1018.08 1018.33 1018.54 1018.70 1018.80 1018.84 1018.81 1018.74 1018.64 1018.54 1018.44
1014.56 1014.51 1014.50 1014.51 1014.53 1014.52 1014.49 1014.41 1014.29 1014.15 1014.01 1013.89 1013.83 1013.85 1013.97 1014.16 1014.43 1014.75 1015.09 1015.45 1015.79 1016.11 1016.42 1016.72 1017.01 1017.30 1017.58 1017.86 1018.11 1018.33 1018.50 1018.61 1018.67 1018.67 1018.64 1018.59 1018.54 1018.50
1013.95 1013.85 1013.78 1013.73 1013.70 1013.67 1013.63 1013.57 1013.49 1013.41 1013.33 1013.28 1013.28 1013.34 1013.49 1013.70 1013.97 1014.28 1014.61 1014.96 1015.29 1015.62 1015.93 1016.24 1016.55 1016.85 1017.16 1017.46 1017.73 1017.98 1018.18 1018.34 1018.44 1018.50 1018.53 1018.55 1018.56 1018.58
1013.23 1013.08 1012.96 1012.87 1012.81 1012.76 1012.72 1012.68 1012.65 1012.61 1012.59 1012.60 1012.65 1012.75 1012.90 1013.11 1013.37 1013.66 1013.97 1014.28 1014.60 1014.91 1015.21 1015.53 1015.84 1016.17 1016.50 1016.84 1017.16 1017.46 1017.73 1017.95 1018.14 1018.29 1018.41 1018.51 1018.60 1018.69
1012.41 1012.23 1012.08 1011.96 1011.88 1011.83 1011.80 1011.78 1011.78 1011.79 1011.81 1011.86 1011.93 1012.04 1012.20 1012.39 1012.61 1012.86 1013.12 1013.39 1013.67 1013.95 1014.24 1014.55 1014.88 1015.23 1015.60 1015.99 1016.38 1016.76 1017.13 1017.46 1017.76 1018.02 1018.25 1018.45 1018.62 1018.78
1011.53 1011.33 1011.16 1011.03 1010.95 1010.90 1010.88 1010.89 1010.91 1010.95 1010.99 1011.05 1011.13 1011.23 1011.35 1011.50 1011.68 1011.87 1012.07 1012.29 1012.52 1012.77 1013.04 1013.35 1013.69 1014.07 1014.49 1014.95 1015.42 1015.91 1016.39 1016.84 1017.27 1017.66 1018.01 1018.32 1018.58 1018.80
1010.64 1010.43 1010.26 1010.13 1010.05 1010.00 1009.99 1010.01 1010.03 1010.07 1010.11 1010.16 1010.22 1010.29 1010.37 1010.47 1010.59 1010.72 1010.86 1011.03 1011.22 1011.44 1011.69 1012.00 1012.36 1012.77 1013.25 1013.77 1014.34 1014.93 1015.53 1016.11 1016.67 1017.19 1017.66 1018.07 1018.42 1018.70
1009.80 1009.60 1009.42 1009.29 1009.20 1009.14 1009.12 1009.12 1009.13 1009.14 1009.15 1009.17 1009.19 1009.22 1009.26 1009.31 1009.37 1009.46 1009.57 1009.70 1009.86 1010.06 1010.31 1010.62 1011.00 1011.45 1011.97 1012.56 1013.20 1013.89 1014.58 1015.28 1015.95 1016.58 1017.15 1017.65 1018.08 1018.43
1009.07 1008.86 1008.67 1008.51 1008.40 1008.31 1008.24 1008.20 1008.16 1008.12 1008.08 1008.05 1008.03 1008.02 1008.02 1008.04 1008.09 1008.16 1008.25 1008.37 1008.53 1008.74 1009.00 1009.32 1009.72 1010.20 1010.76 1011.39 1012.09 1012.83 1013.59 1014.36 1015.11 1015.81 1016.45 1017.02 1017.51 1017.92
1008.47 1008.22 1008.00 1007.80 1007.63 1007.48 1007.34 1007.21 1007.10 1006.99 1006.89 1006.81 1006.74 1006.70 1006.69 1006.71 1006.76 1006.85 1006.97 1007.12 1007.31 1007.54 1007.83 1008.18 1008.60 1009.09 1009.67 1010.32 1011.04 1011.80 1012.59 1013.38 1014.16 1014.90 1015.57 1016.18 1016.71 1017.16
1007.98 1007.69 1007.41 1007.14 1006.88 1006.63 1006.39 1006.16 1005.95 1005.75 1005.58 1005.44 1005.34 1005.29 1005.29 1005.34 1005.43 1005.57 1005.74 1005.95 1006.19 1006.47 1006.80 1007.18 1007.62 1008.13 1008.71 1009.36 1010.06 1010.81 1011.58 1012.36 1013.12 1013.85 1014.52 1015.13 1015.68 1016.15
1007.59 1007.24 1006.88 1006.51 1006.14 1005.77 1005.41 1005.06 1004.74 1004.45 1004.20 1004.02 1003.90 1003.85 1003.87 1003.96 1004.11 1004.32 1004.56 1004.84 1005.15 1005.50 1005.87 1006.29 1006.75 1007.26 1007.84 1008.46 1009.13 1009.84 1010.57 1011.30 1012.01 1012.69 1013.33 1013.91 1014.45 1014.94
1007.27 1006.85 1006.40 1005.93 1005.44 1004.95 1004.45 1003.98 1003.55 1003.16 1002.85 1002.62 1002.48 1002.44 1002.49 1002.63 1002.83 1003.10 1003.42 1003.76 1004.14 1004.53 1004.95 1005.40 1005.88 1006.40 1006.96 1007.56 1008.20 1008.86 1009.53 1010.20 1010.84 1011.46 1012.04 1012.58 1013.09 1013.58
1007.03 1006.55 1006.01 1005.44 1004.84 1004.22 1003.61 1003.03 1002.50 1002.03 1001.66 1001.38 1001.22 1001.18 1001.24 1001.39 1001.63 1001.93 1002.28 1002.66 1003.07 1003.50 1003.95 1004.41 1004.91 1005.44 1005.99 1006.58 1007.19 1007.81 1008.43 1009.04 1009.63 1010.18 1010.70 1011.20 1011.68 1012.16
1006.91 1006.37 1005.77 1005.12 1004.43 1003.72 1003.02 1002.35 1001.74 1001.21 1000.78 1000.46 1000.26 1000.18 1000.22 1000.35 1000.57 1000.84 1001.17 1001.54 1001.93 1002.35 1002.79 1003.26 1003.75 1004.29 1004.85 1005.44 1006.04 1006.65 1007.25 1007.83 1008.37 1008.89 1009.37 1009.82 1010.28 1010.74
1006.98 1006.40 1005.76 1005.06 1004.32 1003.56 1002.81 1002.09 1001.43 1000.85 1000.37 1000.00 999.74 999.60 999.55 999.60 999.72 999.90 1000.14 1000.41 1000.72 1001.07 1001.46 1001.90 1002.38 1002.92 1003.49 1004.10 1004.72 1005.35 1005.96 1006.55 1007.09 1007.59 1008.06 1008.50 1008.94 1009.41
1007.27 1006.69 1006.04 1005.33 1004.58 1003.81 1003.05 1002.32 1001.65 1001.04 1000.51 1000.08 999.74 999.49 999.31 999.21 999.17 999.19 999.25 999.36 999.52 999.75 1000.04 1000.40 1000.85 1001.36 1001.95 1002.58 1003.24 1003.92 1004.57 1005.20 1005.78 1006.30 1006.79 1007.25 1007.70 1008.18
1007.81 1007.25 1006.62 1005.94 1005.22 1004.49 1003.76 1003.06 1002.39 1001.77 1001.21 1000.70 1000.26 999.87 999.53 999.23 998.97 998.75 998.58 998.47 998.43 998.47 998.61 998.87 999.24 999.71 1000.29 1000.94 1001.65 1002.37 1003.09 1003.78 1004.42 1005.00 1005.54 1006.04 1006.53 1007.05
1008.56 1008.03 1007.44 1006.82 1006.18 1005.51 1004.85 1004.20 1003.56 1002.95 1002.35 1001.78 1001.23 1000.68 1000.15 999.63 999.12 998.64 998.20 997.82 997.54 997.36 997.32 997.43 997.68 998.09 998.63 999.28 1000.00 1000.77 1001.54 1002.29 1003.00 1003.66 1004.27 1004.84 1005.39 1005.96
1009.40 1008.91 1008.40 1007.85 1007.29 1006.73 1006.15 1005.56 1004.98 1004.38 1003.77 1003.13 1002.48 1001.79 1001.07 1000.33 999.57 998.83 998.12 997.48 996.94 996.53 996.28 996.20 996.32 996.61 997.07 997.67 998.38 999.15 999.96 1000.76 1001.53 1002.25 1002.94 1003.58 1004.21 1004.85
1010.19 1009.75 1009.30 1008.85 1008.39 1007.91 1007.43 1006.92 1006.39 1005.82 1005.20 1004.53 1003.79 1002.98 1002.11 1001.19 1000.23 999.26 998.32 997.44 996.66 996.03 995.56 995.29 995.23 995.38 995.71 996.21 996.85 997.58 998.37 999.18 999.98 1000.76 1001.51 1002.23 1002.95 1003.67
Thickness
5763 5761 5759 5759 5758 5756 5753 5750 5744 5739 5740 5742 5743 5742 5739 5735 5730 5728 5726 5721 5717 5715 5712 5710 5708 5706 5704 5702 5701 5699 5698 5696 5695 5694 5692 5690 5688 5687
5760 5758 5756 5758 5756 5755 5752 5750 5747 5743 5739 5742 5741 5741 5736 5734 5728 5726 5724 5720 5716 5713 5710 5707 5705 5703 5701 5699 5698 5696 5694 5693 5691 5690 5688 5686 5684 5683
5759 5757 5754 5753 5753 5753 5751 5748 5746 5743 5737 5739 5740 5737 5731 5728 5726 5724 5723 5720 5718 5712 5708 5705 5702 5700 5698 5696 5694 5693 5691 5689 5688 5686 5684 5682 5680 5679
5756 5754 5752 5752 5748 5748 5746 5744 5742 5740 5736 5731 5734 5733 5728 5726 5723 5720 5721 5720 5718 5713 5708 5704 5701 5698 5695 5693 5691 5689 5688 5686 5684 5682 5680 5678 5676 5675
5754 5751 5749 5747 5744 5744 5741 5741 5740 5739 5735 5731 5730 5729 5727 5724 5719 5718 5718 5715 5715 5713 5707 5703 5699 5696 5693 5690 5688 5686 5684 5683 5681 5679 5677 5675 5673 5671
5752 5749 5747 5745 5742 5740 5738 5735 5735 5733 5731 5729 5727 5725 5722 5720 5716 5714 5714 5713 5711 5712 5707 5703 5698 5694 5691 5688 5686 5683 5681 5680 5678 5676 5674 5672 5670 5668
5749 5747 5745 5741 5738 5735 5735 5733 5730 5728 5727 5725 5723 5721 5718 5714 5713 5712 5710 5709 5708 5707 5704 5702 5699 5695 5691 5687 5684 5681 5678 5676 5675 5673 5671 5669 5667 5665
5744 5743 5742 5739 5735 5730 5728 5725 5723 5722 5721 5719 5718 5715 5711 5711 5709 5708 5706 5703 5700 5704 5698 5698 5697 5694 5692 5688 5684 5680 5676 5673 5671 5670 5667 5665 5663 5661
5741 5739 5740 5739 5733 5730 5726 5721 5719 5715 5712 5712 5712 5710 5708 5707 5703 5701 5698 5696 5695 5698 5694 5693 5693 5690 5689 5687 5682 5677 5673 5670 5668 5666 5664 5662 5660 5658
5738 5736 5733 5731 5729 5724 5722 5720 5718 5716 5711 5708 5707 5706 5704 5701 5697 5695 5693 5691 5691 5692 5689 5686 5688 5686 5686 5683 5679 5674 5670 5667 5664 5662 5659 5658 5655 5653
5735 5733 5729 5726 5720 5715 5714 5713 5712 5711 5707 5704 5700 5698 5695 5693 5690 5689 5688 5686 5686 5688 5687 5682 5683 5681 5680 5678 5676 5671 5667 5664 5661 5658 5655 5653 5651 5648
5732 5729 5723 5720 5714 5709 5708 5706 5704 5704 5703 5701 5696 5693 5692 5689 5685 5682 5682 5681 5681 5681 5682 5676 5675 5673 5672 5674 5672 5668 5663 5659 5656 5654 5651 5648 5645 5643
5729 5727 5723 5713 5707 5703 5700 5701 5698 5696 5696 5695 5694 5692 5690 5688 5685 5681 5677 5675 5674 5674 5675 5670 5668 5666 5664 5664 5665 5663 5660 5656 5652 5649 5646 5643 5640 5638
5721 5721 5717 5707 5701 5696 5694 5693 5690 5686 5689 5690 5689 5687 5685 5683 5681 5677 5674 5670 5668 5667 5665 5662 5660 5657 5655 5655 5656 5656 5654 5651 5648 5645 5643 5639 5635 5633
5713 5709 5703 5698 5694 5692 5688 5685 5682 5683 5684 5683 5682 5681 5679 5677 5674 5671 5669 5665 5662 5661 5660 5655 5652 5650 5647 5647 5648 5647 5645 5645 5642 5639 5636 5633 5631 5628
5704 5700 5693 5690 5687 5685 5684 5681 5680 5679 5678 5676 5675 5674 5672 5669 5666 5664 5661 5659 5657 5656 5654 5649 5645 5642 5640 5639 5638 5638 5637 5635 5634 5631 5629 5627 5626 5625
5695 5692 5691 5689 5686 5683 5682 5680 5677 5673 5670 5668 5666 5664 5662 5661 5659 5657 5652 5651 5649 5648 5646 5643 5639 5635 5633 5631 5629 5630 5629 5627 5626 5623 5619 5619 5620 5619
5682 5685 5685 5682 5680 5678 5676 5673 5670 5666 5663 5660 5658 5655 5653 5651 5649 5647 5645 5642 5640 5639 5637 5634 5630 5627 5624 5625 5621 5620 5620 5619 5618 5615 5612 5610 5611 5613
5675 5678 5676 5674 5672 5670 5667 5664 5661 5658 5655 5652 5649 5647 5645 5643 5641 5638 5635 5632 5630 5628 5627 5624 5621 5617 5615 5616 5617 5612 5611 5611 5609 5607 5606 5605 5605 5606
5670 5669 5667 5665 5663 5660 5658 5655 5652 5648 5645 5642 5640 5638 5636 5634 5632 5629 5626 5622 5619 5617 5617 5615 5613 5610 5607 5607 5607 5607 5604 5603 5601 5599 5599 5599 5599 5599
5664 5661 5659 5657 5655 5652 5649 5645 5642 5639 5636 5633 5631 5627 5625 5623 5622 5620 5617 5612 5609 5608 5607 5607 5605 5601 5600 5599 5598 5600 5600 5596 5594 5591 5591 5590 5591 5592
5657 5654 5652 5649 5646 5643 5639 5636 5633 5630 5627 5624 5621 5619 5616 5614 5612 5611 5609 5606 5604 5602 5600 5599 5597 5594 5593 5592 5592 5592 5592 5590 5588 5586 5584 5583 5583 5585
5648 5645 5643 5640 5636 5633 5630 5627 5623 5621 5618 5614 5612 5610 5608 5605 5603 5601 5600 5598 5596 5594 5591 5589 5588 5587 5586 5586 5585 5585 5584 5583 5582 5581 5580 5579 5576 5576